Miscellaneous Local Product
Issued by NWS North Platte, NE

Home | Current Version | Previous Version | Text Only | Print | Product List | Glossary On
Versions: 1 2 3 4 5 6 7 8 9 10 11 12 13 14 15 16 17 18 19 20 21 22 23 24 25 26 27 28 29 30 31 32 33 34 35 36 37 38 39 40 41 42 43 44 45 46 47 48 49 50
000
AXUS43 KLBF 031610
MISLBF


WESTERN AND NORTH CENTRAL NEBRASKA HOURLY WEATHER ROUNDUP
NATIONAL WEATHER SERVICE NORTH PLATTE NE
1100 AM CDT TUE MAY 03 2016

NOTE: "FAIR" INDICATES FEW OR NO CLOUDS BELOW 12,000 FEET WITH NO
SIGNIFICANT WEATHER AND/OR OBSTRUCTIONS TO VISIBILITY.

NOTE: STATIONS NOT REPORTING VARIABLES SUCH AS SKY/WEATHER OR
PRESSURE ARE PROVIDED BY RAWS AND APRS NETWORKS AND ARE NOT UNDER
NATIONAL WEATHER SERVICE QUALITY CONTROL.

...OBSERVATIONS IN AND NEAR THE EASTERN PANHANDLE OF NEBRASKA...

CITY           SKY/WX    TMP DP  RH WIND       PRES   REMARKS
PINE RIDGE     SUNNY     56  42  59 W7        30.13R
CHADRON        SUNNY     60  41  49 NW6       30.13S
ALLIANCE       SUNNY     56  40  55 N9        30.13S
SIDNEY         SUNNY     55  37  50 N12       30.17R
CRESCENT LAKE    N/A     55  43  65 N7          N/A
BIG SPRINGS      N/A     49  45  85 NW3         N/A
$$

...OBSERVATIONS IN NORTHERN NEBRASKA AND FAR SOUTHERN SOUTH DAKOTA...

CITY           SKY/WX    TMP DP  RH WIND       PRES   REMARKS
WINNER         FAIR      60  43  53 NW12      30.07F
VALENTINE      SUNNY     58  42  55 NW10      30.09S
THEDFORD       SUNNY     55  44  65 NW6       30.11S
AINSWORTH      SUNNY     56  43  60 W7        30.09F
O`NEILL        SUNNY     58  44  58 NW8       30.08S
ORD            SUNNY     60  44  55 NW6       30.07S
BROKEN BOW     SUNNY     59  42  53 N6        30.08S
VALENTINE NWR    N/A     54  44  69 NW6         N/A
BUTTE            N/A     59  44  56 W10         N/A
HALSEY           N/A     55  44  67 NW5         N/A
CHAMBERS         N/A     62  42  48 N6          N/A
EWING            N/A     60  48  64 NW5G12      N/A
$$

...OBSERVATIONS IN SOUTHWEST NEBRASKA AND FAR NORTHEAST COLORADO...

CITY           SKY/WX    TMP DP  RH WIND       PRES   REMARKS
HOLYOKE        FAIR      59  43  55 N9        30.15R
IMPERIAL       PTSUNNY   53  42  66 N14       30.13S
OGALLALA       SUNNY     54  41  62 N7        30.13S
NORTH PLATTE   SUNNY     53  46  77 W7        30.11F
MCCOOK         MOSUNNY   55  44  66 N9        30.10S
LEXINGTON      SUNNY     57  44  60 N5        30.08S
PAXTON           N/A     47  46  95 CALM        N/A
STAPLETON        N/A     55  45  70 CALM        N/A
GOTHENBURG       N/A     55  40  56 N8          N/A
CALLAWAY         N/A     54  45  72 N8          N/A
$$

...OBSERVATIONS IN CENTRAL LINCOLN COUNTY AREA...

CITY           SKY/WX    TMP DP  RH WIND       PRES   REMARKS
N.P. AIRPORT   SUNNY     53  46  77 W7        30.11F
N.P. DOWNTOWN    N/A     51  45  81 NW3         N/A
N.P. HILLCREST   N/A     52  46  79 N5G12       N/A
$$

...SOME OBSERVATIONS FROM AROUND THE REGION...

CITY           SKY/WX    TMP DP  RH WIND       PRES   REMARKS
DENVER         MOSUNNY   58  32  37 N16       30.22S
LARAMIE        SUNNY     42  31  64 NW5       30.29S
CHEYENNE       MOSUNNY   53  31  42 NW18G30   30.23R
SCOTTSBLUFF    SUNNY     60  42  51 NW10G21   30.15F
RAPID CITY     SUNNY     64  40  41 N14       30.11S
BISMARCK       SUNNY     68  39  34 NW15      29.99F
PIERRE         SUNNY     60  48  64 W9        30.03F
SIOUX FALLS    MOSUNNY   60  45  57 NW14      30.00F
OMAHA          MOSUNNY   65  41  41 W9        30.05F
GRAND ISLAND   SUNNY     60  40  47 SW5       30.08S
KANSAS CITY    MOSUNNY   62  44  51 VRB3      30.08F
WICHITA        MOSUNNY   61  46  57 VRB5      30.08F
OKLAHOMA CITY  MOSUNNY   63  43  48 W8        30.12F
DALLAS         SUNNY     67  46  47 N6        30.13S
AMARILLO       MOSUNNY   60  42  51 NE14      30.16R
DODGE CITY     CLOUDY    61  37  41 NW7       30.06F
HAYS           SUNNY     61  39  44 N5        30.07S
GOODLAND       MOSUNNY   56  42  59 N13G18    30.12R
$$




USA.gov is the U.S. government's official web portal to all federal, state and local government web resources and services.